Location: Unspecified
(48.2082°N, 0.0000°E)
Time: 19:04:30
(UTC+00:00)

Tiros 1 despin weight - Pass Details

Date: 26 June 2019
Orbit: 594 x 642 km, 48.2° (Epoch: 20 July)

Event Time Altitude Azimuth Distance (km) Brightness Sun altitude
Rises 20:03:55 0° 187° (S) 2,868 ? -0.7°
Reaches altitude 10° 20:07:49 10° 154° (SSE) 1,955 ? -1.2°
Maximum altitude 20:09:13 11° 135° (SE) 1,865 ? -1.4°
Drops below altitude 10° 20:10:38 10° 117° (ESE) 1,950 ? -1.6°
Sets 20:14:29 0° 83° (E) 2,847 ? -2.1°
